When you browse on this site, cookies collect data to enhance your experience and personalize the content and advertising you see.
Visit our Privacy Policy to learn more. By continuing to use the site, you agree to this use of cookies and data.
  • In Czech Republic
  • List of Countries
  • For 7 days
  • Water Temperature
  • Weather Map
  • Weather Widgets
  • user-avatar
    Login

    Hourly Weather Ashtarak

    Today, 18 October, Friday

    Time Temperature Precipitation Wind Pressure Humidity
    00:00 +14°C° 0 mm 1 mps 661 mmHg 26%
    01:00 +14°C° 0 mm 1 mps 661 mmHg 26%
    02:00 +14°C° 0 mm 1 mps 661 mmHg 27%
    03:00 +13°C° 0 mm 1 mps 661 mmHg 28%
    04:00 +13°C° 0 mm 1 mps 661 mmHg 29%
    05:00 +13°C° 0 mm 1 mps 661 mmHg 29%
    06:00 +12°C° 0 mm 1 mps 661 mmHg 30%
    07:00 +15°C° 0 mm 1 mps 661 mmHg 26%
    08:00 +19°C° 0 mm 1 mps 662 mmHg 22%
    09:00 +21°C° 0 mm 1 mps 663 mmHg 18%
    10:00 +22°C° 0 mm 1 mps 663 mmHg 18%
    11:00 +23°C° 0 mm 1 mps 663 mmHg 18%
    12:00 +24°C° 0 mm 2 mps 663 mmHg 18%
    13:00 +25°C° 0 mm 2 mps 662 mmHg 19%
    14:00 +25°C° 0 mm 2 mps 662 mmHg 21%
    15:00 +25°C° 0 mm 2 mps 661 mmHg 22%
    16:00 +23°C° 0 mm 1 mps 661 mmHg 26%
    17:00 +21°C° 0 mm 1 mps 660 mmHg 30%
    18:00 +19°C° 0 mm 1 mps 660 mmHg 34%
    19:00 +18°C° 0 mm 1 mps 660 mmHg 35%
    20:00 +18°C° 0 mm 1 mps 660 mmHg 37%
    21:00 +16°C° 0 mm 1 mps 660 mmHg 38%
    22:00 +16°C° 0 mm 1 mps 660 mmHg 40%
    23:00 +15°C° 0 mm 1 mps 660 mmHg 42%

    Tomorrow, 19 October, Saturday

    Time Temperature Precipitation Wind Pressure Humidity
    00:00 +15°C° 0 mm 1 mps 660 mmHg 44%
    01:00 +15°C° 0 mm 1 mps 660 mmHg 45%
    02:00 +14°C° 0 mm 1 mps 660 mmHg 47%
    03:00 +14°C° 0 mm 1 mps 659 mmHg 48%
    04:00 +14°C° 0 mm 1 mps 659 mmHg 50%
    05:00 +13°C° 0 mm 1 mps 660 mmHg 51%
    06:00 +13°C° 0 mm 1 mps 660 mmHg 52%
    07:00 +16°C° 0 mm 1 mps 660 mmHg 45%
    08:00 +19°C° 0 mm 1 mps 661 mmHg 38%
    09:00 +21°C° 0 mm 1 mps 662 mmHg 31%
    10:00 +22°C° 0 mm 1 mps 662 mmHg 30%
    11:00 +23°C° 0 mm 2 mps 662 mmHg 29%
    12:00 +24°C° 0 mm 2 mps 662 mmHg 27%
    13:00 +25°C° 0 mm 2 mps 661 mmHg 26%
    14:00 +25°C° 0 mm 2 mps 661 mmHg 26%
    15:00 +25°C° 0 mm 1 mps 661 mmHg 25%
    16:00 +23°C° 0 mm 1 mps 660 mmHg 29%
    17:00 +21°C° 0 mm 1 mps 660 mmHg 33%
    18:00 +17°C° 0 mm 0 mps 659 mmHg 37%
    19:00 +18°C° 0 mm 1 mps 660 mmHg 39%
    20:00 +18°C° 0 mm 1 mps 660 mmHg 41%
    21:00 +17°C° 0 mm 2 mps 660 mmHg 43%
    22:00 +16°C° 0 mm 2 mps 660 mmHg 45%
    23:00 +16°C° 0 mm 2 mps 660 mmHg 47%

    Day after tomorrow, 20 October, Sunday

    Time Temperature Precipitation Wind Pressure Humidity
    00:00 +15°C° 0 mm 2 mps 660 mmHg 49%
    01:00 +15°C° 0 mm 2 mps 660 mmHg 50%
    02:00 +15°C° 0 mm 2 mps 660 mmHg 51%
    03:00 +15°C° 0 mm 1 mps 660 mmHg 52%
    04:00 +14°C° 0 mm 1 mps 660 mmHg 54%
    05:00 +14°C° 0 mm 1 mps 660 mmHg 57%
    06:00 +13°C° 0 mm 1 mps 660 mmHg 59%
    07:00 +15°C° 0 mm 1 mps 661 mmHg 52%
    08:00 +18°C° 0 mm 1 mps 661 mmHg 46%
    09:00 +20°C° 0 mm 1 mps 662 mmHg 39%
    10:00 +22°C° 0.1 mm 1 mps 662 mmHg 36%
    11:00 +23°C° 0.1 mm 2 mps 662 mmHg 34%
    12:00 +24°C° 0.1 mm 2 mps 662 mmHg 31%
    13:00 +24°C° 0.1 mm 2 mps 662 mmHg 30%
    14:00 +24°C° 0.1 mm 2 mps 661 mmHg 30%
    15:00 +25°C° 0.1 mm 2 mps 661 mmHg 29%
    16:00 +21°C° 0.1 mm 2 mps 661 mmHg 35%
    17:00 +19°C° 0.1 mm 2 mps 661 mmHg 41%
    18:00 +17°C° 0.1 mm 2 mps 660 mmHg 47%
    19:00 +17°C° 0 mm 2 mps 661 mmHg 50%
    20:00 +16°C° 0 mm 2 mps 661 mmHg 54%
    21:00 +16°C° 0 mm 3 mps 661 mmHg 57%
    22:00 +14°C° 0 mm 3 mps 661 mmHg 59%
    23:00 +14°C° 0 mm 3 mps 661 mmHg 62%

    21 October, Monday

    Time Temperature Precipitation Wind Pressure Humidity
    00:00 +14°C° 0 mm 2 mps 661 mmHg 64%
    01:00 +14°C° 0 mm 2 mps 661 mmHg 65%
    02:00 +14°C° 0 mm 2 mps 661 mmHg 67%
    03:00 +13°C° 0 mm 2 mps 660 mmHg 68%
    04:00 +13°C° 0 mm 2 mps 660 mmHg 70%
    05:00 +13°C° 0 mm 2 mps 661 mmHg 71%
    06:00 +12°C° 0 mm 2 mps 661 mmHg 73%
    07:00 +14°C° 0 mm 2 mps 661 mmHg 66%
    08:00 +16°C° 0 mm 1 mps 662 mmHg 60%
    09:00 +18°C° 0 mm 1 mps 662 mmHg 53%
    10:00 +19°C° 0.1 mm 1 mps 662 mmHg 49%
    11:00 +21°C° 0.1 mm 1 mps 662 mmHg 46%
    12:00 +21°C° 0.1 mm 2 mps 662 mmHg 42%
    13:00 +21°C° 0.2 mm 2 mps 662 mmHg 41%
    14:00 +22°C° 0.2 mm 1 mps 661 mmHg 39%
    15:00 +23°C° 0.2 mm 1 mps 661 mmHg 38%
    16:00 +20°C° 0.3 mm 2 mps 661 mmHg 45%
    17:00 +18°C° 0.3 mm 2 mps 661 mmHg 52%
    18:00 +16°C° 0.3 mm 2 mps 660 mmHg 58%
    19:00 +16°C° 0 mm 2 mps 660 mmHg 60%
    20:00 +15°C° 0 mm 2 mps 660 mmHg 63%
    21:00 +14°C° 0 mm 3 mps 661 mmHg 65%
    22:00 +13°C° 0 mm 3 mps 660 mmHg 66%
    23:00 +14°C° 0 mm 2 mps 660 mmHg 68%

    22 October, Tuesday

    Time Temperature Precipitation Wind Pressure Humidity
    00:00 +13°C° 0 mm 2 mps 660 mmHg 69%
    01:00 +13°C° 0 mm 2 mps 660 mmHg 71%
    02:00 +12°C° 0 mm 2 mps 660 mmHg 72%
    03:00 +12°C° 0 mm 2 mps 660 mmHg 74%
    04:00 +12°C° 0 mm 1 mps 660 mmHg 75%
    05:00 +11°C° 0 mm 1 mps 660 mmHg 76%
    06:00 +11°C° 0 mm 1 mps 660 mmHg 77%
    07:00 +13°C° 0 mm 1 mps 660 mmHg 70%
    08:00 +14°C° 0 mm 1 mps 661 mmHg 62%
    09:00 +16°C° 0 mm 1 mps 662 mmHg 55%
    10:00 +18°C° 0 mm 1 mps 661 mmHg 51%
    11:00 +19°C° 0 mm 2 mps 661 mmHg 47%
    12:00 +20°C° 0 mm 2 mps 661 mmHg 43%
    13:00 +20°C° 0.1 mm 2 mps 661 mmHg 41%
    14:00 +21°C° 0.1 mm 2 mps 661 mmHg 39%
    15:00 +21°C° 0.1 mm 2 mps 661 mmHg 36%
    16:00 +20°C° 0.1 mm 1 mps 660 mmHg 41%
    17:00 +18°C° 0.1 mm 1 mps 660 mmHg 46%
    18:00 +14°C° 0.1 mm 0 mps 660 mmHg 51%
    19:00 +15°C° 0 mm 1 mps 660 mmHg 54%
    20:00 +15°C° 0 mm 1 mps 660 mmHg 56%
    21:00 +14°C° 0 mm 1 mps 660 mmHg 59%
    22:00 +14°C° 0 mm 1 mps 660 mmHg 59%
    23:00 +14°C° 0 mm 1 mps 660 mmHg 60%

    23 October, Wednesday

    Time Temperature Precipitation Wind Pressure Humidity
    00:00 +13°C° 0 mm 1 mps 660 mmHg 61%
    01:00 +13°C° 0 mm 1 mps 660 mmHg 63%
    02:00 +12°C° 0 mm 1 mps 659 mmHg 65%
    03:00 +12°C° 0 mm 1 mps 659 mmHg 68%
    04:00 +12°C° 0 mm 1 mps 659 mmHg 69%
    05:00 +11°C° 0 mm 1 mps 659 mmHg 69%
    06:00 +11°C° 0 mm 1 mps 659 mmHg 70%
    07:00 +13°C° 0 mm 1 mps 659 mmHg 62%
    08:00 +15°C° 0 mm 1 mps 660 mmHg 54%
    09:00 +18°C° 0 mm 1 mps 661 mmHg 46%
    10:00 +19°C° 0 mm 1 mps 661 mmHg 42%
    11:00 +20°C° 0 mm 1 mps 661 mmHg 39%
    12:00 +20°C° 0 mm 2 mps 661 mmHg 35%
    13:00 +21°C° 0 mm 2 mps 660 mmHg 34%
    14:00 +21°C° 0 mm 2 mps 660 mmHg 33%
    15:00 +21°C° 0 mm 2 mps 660 mmHg 32%
    16:00 +20°C° 0 mm 1 mps 659 mmHg 37%
    17:00 +18°C° 0 mm 1 mps 659 mmHg 42%
    18:00 +15°C° 0 mm 0 mps 659 mmHg 47%
    19:00 +15°C° 0 mm 1 mps 659 mmHg 49%
    20:00 +15°C° 0 mm 1 mps 659 mmHg 51%
    21:00 +14°C° 0 mm 1 mps 660 mmHg 53%
    22:00 +14°C° 0 mm 1 mps 660 mmHg 55%
    23:00 +14°C° 0 mm 1 mps 660 mmHg 57%
    Show more